TimeCST,TemperatureF,Dew PointF,Humidity,Sea Level PressureIn,VisibilityMPH,Wind Direction,Wind SpeedMPH,Gust SpeedMPH,PrecipitationIn,Events,Conditions,WindDirDegrees,DateUTC
12:15 AM,41.0,26.6,57,30.16,10.0,SSE,9.2,-,N/A,,Clear,150,2013-03-07 06:15:00
12:35 AM,41.0,23.0,49,30.15,10.0,SSE,10.4,-,N/A,,Clear,150,2013-03-07 06:35:00
12:55 AM,42.8,23.0,46,30.14,10.0,SSE,12.7,18.4,N/A,,Clear,160,2013-03-07 06:55:00
1:15 AM,42.8,23.0,46,30.14,10.0,SSE,13.8,-,N/A,,Clear,160,2013-03-07 07:15:00
1:35 AM,42.8,23.0,46,30.15,10.0,SSE,10.4,17.3,N/A,,Clear,150,2013-03-07 07:35:00
1:55 AM,41.0,23.0,49,30.15,10.0,SSE,11.5,-,N/A,,Clear,150,2013-03-07 07:55:00
2:15 AM,41.0,23.0,49,30.15,10.0,SSE,10.4,-,N/A,,Clear,150,2013-03-07 08:15:00
2:35 AM,41.0,23.0,49,30.15,10.0,SSE,8.1,-,N/A,,Clear,150,2013-03-07 08:35:00
2:55 AM,39.2,23.0,52,30.14,10.0,SSE,6.9,-,N/A,,Clear,150,2013-03-07 08:55:00
3:15 AM,37.4,23.0,56,30.14,10.0,SSE,8.1,-,N/A,,Clear,160,2013-03-07 09:15:00
3:35 AM,37.4,23.0,56,30.13,10.0,SSE,9.2,-,N/A,,Clear,150,2013-03-07 09:35:00
3:55 AM,37.4,24.8,60,30.12,10.0,SSE,9.2,-,N/A,,Clear,150,2013-03-07 09:55:00
4:15 AM,37.4,24.8,60,30.11,10.0,SE,9.2,-,N/A,,Clear,140,2013-03-07 10:15:00
4:35 AM,37.4,26.6,65,30.11,10.0,SE,8.1,-,N/A,,Clear,140,2013-03-07 10:35:00
4:55 AM,37.4,26.6,65,30.12,10.0,SSE,8.1,-,N/A,,Clear,150,2013-03-07 10:55:00
5:15 AM,37.4,24.8,60,30.12,10.0,SE,9.2,-,N/A,,Clear,140,2013-03-07 11:15:00
5:35 AM,37.4,26.6,65,30.12,10.0,SE,6.9,-,N/A,,Clear,140,2013-03-07 11:35:00
5:55 AM,35.6,24.8,65,30.12,10.0,SE,8.1,-,N/A,,Clear,140,2013-03-07 11:55:00
6:15 AM,35.6,26.6,70,30.12,10.0,SE,6.9,-,N/A,,Clear,140,2013-03-07 12:15:00
6:35 AM,35.6,26.6,70,30.12,10.0,SE,6.9,-,N/A,,Clear,140,2013-03-07 12:35:00
6:55 AM,35.6,26.6,70,30.13,10.0,SE,5.8,-,N/A,,Clear,140,2013-03-07 12:55:00
7:15 AM,35.6,26.6,70,30.13,10.0,SE,5.8,-,N/A,,Clear,130,2013-03-07 13:15:00
7:35 AM,37.4,26.6,65,30.13,10.0,SE,8.1,-,N/A,,Clear,140,2013-03-07 13:35:00
7:55 AM,41.0,26.6,57,30.14,10.0,SSE,13.8,-,N/A,,Clear,160,2013-03-07 13:55:00
8:15 AM,44.6,26.6,49,30.13,10.0,South,13.8,25.3,N/A,,Clear,170,2013-03-07 14:15:00
8:35 AM,48.2,28.4,46,30.14,10.0,SSE,13.8,21.9,N/A,,Clear,160,2013-03-07 14:35:00
8:55 AM,48.2,28.4,46,30.14,10.0,South,19.6,24.2,N/A,,Clear,170,2013-03-07 14:55:00
9:15 AM,51.8,28.4,41,30.14,10.0,South,17.3,24.2,N/A,,Clear,170,2013-03-07 15:15:00
9:35 AM,53.6,30.2,41,30.14,10.0,South,16.1,21.9,N/A,,Clear,170,2013-03-07 15:35:00
9:55 AM,55.4,30.2,38,30.13,10.0,South,21.9,27.6,N/A,,Clear,180,2013-03-07 15:55:00
10:15 AM,59.0,30.2,34,30.13,10.0,South,20.7,25.3,N/A,,Clear,190,2013-03-07 16:15:00
10:35 AM,59.0,30.2,34,30.12,10.0,South,20.7,28.8,N/A,,Clear,190,2013-03-07 16:35:00
10:55 AM,59.0,30.2,34,30.12,10.0,South,18.4,32.2,N/A,,Clear,190,2013-03-07 16:55:00
11:15 AM,60.8,32.0,34,30.12,10.0,South,23.0,27.6,N/A,,Clear,180,2013-03-07 17:15:00
11:35 AM,62.6,32.0,32,30.11,10.0,SSW,21.9,27.6,N/A,,Clear,200,2013-03-07 17:35:00
11:55 AM,62.6,32.0,32,30.10,10.0,South,19.6,28.8,N/A,,Clear,190,2013-03-07 17:55:00
12:15 PM,62.6,32.0,32,30.10,10.0,SSW,23.0,32.2,N/A,,Clear,200,2013-03-07 18:15:00
12:35 PM,66.2,32.0,28,30.09,10.0,South,19.6,31.1,N/A,,Clear,190,2013-03-07 18:35:00
12:55 PM,68.0,33.8,28,30.09,10.0,SSW,17.3,28.8,N/A,,Clear,200,2013-03-07 18:55:00
1:15 PM,68.0,33.8,28,30.07,10.0,SSW,19.6,28.8,N/A,,Clear,210,2013-03-07 19:15:00
1:35 PM,68.0,33.8,28,30.06,10.0,South,18.4,25.3,N/A,,Clear,190,2013-03-07 19:35:00
1:55 PM,68.0,33.8,28,30.05,10.0,South,17.3,25.3,N/A,,Clear,190,2013-03-07 19:55:00
2:15 PM,68.0,33.8,28,30.05,10.0,South,17.3,24.2,N/A,,Clear,190,2013-03-07 20:15:00
2:35 PM,69.8,33.8,27,30.04,10.0,South,19.6,28.8,N/A,,Clear,190,2013-03-07 20:35:00
2:55 PM,69.8,33.8,27,30.04,10.0,South,19.6,27.6,N/A,,Clear,190,2013-03-07 20:55:00
3:15 PM,71.6,33.8,25,30.03,10.0,South,15.0,24.2,N/A,,Clear,180,2013-03-07 21:15:00
3:35 PM,69.8,33.8,27,30.03,10.0,SSE,19.6,26.5,N/A,,Clear,160,2013-03-07 21:35:00
3:55 PM,71.6,33.8,25,30.03,10.0,South,16.1,26.5,N/A,,Clear,180,2013-03-07 21:55:00
4:15 PM,69.8,33.8,27,30.02,10.0,SSE,17.3,23.0,N/A,,Clear,160,2013-03-07 22:15:00
4:35 PM,69.8,33.8,27,30.02,10.0,South,16.1,24.2,N/A,,Clear,180,2013-03-07 22:35:00
4:55 PM,68.0,33.8,28,30.02,10.0,South,17.3,23.0,N/A,,Clear,180,2013-03-07 22:55:00
5:15 PM,68.0,33.8,28,30.02,10.0,South,16.1,21.9,N/A,,Clear,180,2013-03-07 23:15:00
5:35 PM,68.0,35.6,30,30.02,10.0,SSE,17.3,-,N/A,,Clear,160,2013-03-07 23:35:00
5:55 PM,68.0,33.8,28,30.02,10.0,SSE,16.1,-,N/A,,Clear,160,2013-03-07 23:55:00
7:35 PM,60.8,32.0,34,30.05,10.0,SSE,15.0,20.7,N/A,,Clear,160,2013-03-08 01:35:00
7:55 PM,59.0,32.0,36,30.05,10.0,SSE,13.8,-,N/A,,Clear,160,2013-03-08 01:55:00
8:15 PM,59.0,32.0,36,30.05,10.0,SSE,10.4,-,N/A,,Clear,150,2013-03-08 02:15:00
8:35 PM,55.4,32.0,41,30.05,10.0,SSE,12.7,-,N/A,,Clear,150,2013-03-08 02:35:00
8:55 PM,55.4,32.0,41,30.05,10.0,SSE,11.5,-,N/A,,Clear,150,2013-03-08 02:55:00
9:15 PM,55.4,32.0,41,30.06,10.0,SSE,10.4,-,N/A,,Clear,150,2013-03-08 03:15:00
9:35 PM,55.4,32.0,41,30.06,10.0,SSE,10.4,-,N/A,,Clear,150,2013-03-08 03:35:00
9:55 PM,55.4,32.0,41,30.07,10.0,SE,5.8,-,N/A,,Clear,130,2013-03-08 03:55:00
10:15 PM,53.6,32.0,44,30.07,10.0,SE,9.2,-,N/A,,Clear,130,2013-03-08 04:15:00
10:35 PM,51.8,32.0,47,30.07,10.0,SE,6.9,-,N/A,,Clear,140,2013-03-08 04:35:00
10:55 PM,53.6,32.0,44,30.07,10.0,SSE,8.1,-,N/A,,Clear,150,2013-03-08 04:55:00
11:15 PM,53.6,32.0,44,30.07,10.0,SSE,8.1,-,N/A,,Clear,150,2013-03-08 05:15:00
11:35 PM,53.6,32.0,44,30.07,10.0,SSE,9.2,-,N/A,,Clear,160,2013-03-08 05:35:00
11:55 PM,53.6,33.8,47,30.07,10.0,SSE,9.2,-,N/A,,Clear,160,2013-03-08 05:55:00